Flag for China Weather past 2 weeks in Fushun, Liaoning, China

Now
70 °F

Partly sunny.


Feels Like: 70 °F
Forecast: 46 / 70 °F
Wind: 6 mph from Southwest

Location: Shenyang / Taoxian

Current Time: Sep 23, 2014 at 10:24:58 AM

Latest Report: Sep 23, 2014 at 10:00 AM


Visibility: 4 mi

Pressure: 30.09 "Hg

Humidity: 60%

Dew point: 55 °F

Location of FushunLocation

Historic Weather in Fushun — Graph

°F

Fushun temperature yesterday

Maximum temperature yesterday: 79 °F (at 12:00 PM)
Minimum temperature yesterday: 50 °F (at 2:00 AM)
Average temperature yesterday: 64 °F

Past Weeks' High & Low Weather Summary

 TemperatureHumidityPressure
High82 °F (Sep 11, 1:30 PM)100% (Sep 9, 4:30 AM)30.15 "Hg (Sep 9, 4:30 AM)
Low41 °F (Sep 16, 4:30 AM)15% (Sep 9, 4:30 PM)29.74 "Hg (Sep 8, 1:30 PM)
Average64 °F57%29.99 "Hg
* Reported Sep 8 9:00 AM — Sep 23 9:00 AM, Fushun, Weather by CustomWeather, © 2014

Note: Actual official high and low records may vary slightly from our data, if they occured in-between our weather recording intervals... More about our weather records

Advertising

Fushun weather history for previous 24 hours

 ConditionsComfort  
Time TempWeatherWind HumidityBarometerVisibility
9:00 AM
Sep 23
66 °FPartly sunny.3 mph68%30.09 "Hg5 mi
8:30 AM64 °FScattered clouds.6 mph73%30.09 "Hg5 mi
8:00 AM64 °FScattered clouds.3 mph73%30.09 "Hg4 mi
7:30 AM63 °FScattered clouds.3 mph77%30.09 "Hg4 mi
7:00 AM61 °FScattered clouds.6 mph83%30.09 "Hg4 mi
6:30 AM61 °FScattered clouds.3 mph83%30.09 "Hg4 mi
6:00 AM61 °FClear.3 mph83%30.09 "Hg5 mi
5:30 AM61 °FClear.6 mph77%30.07 "Hg5 mi
5:00 AM61 °FClear.6 mph77%30.07 "Hg5 mi
4:30 AM61 °FClear.6 mph77%30.07 "Hg5 mi
4:00 AM59 °FClear.6 mph82%30.07 "Hg5 mi
3:30 AM59 °FClear.3 mph82%30.07 "Hg5 mi
3:00 AM59 °FClear.1 mph82%30.07 "Hg4 mi
2:30 AM59 °FClear.3 mph82%30.07 "Hg4 mi
2:00 AM61 °FClear.6 mph77%30.07 "Hg4 mi
1:30 AM57 °FClear.1 mph88%30.07 "Hg4 mi
1:00 AM59 °FFog.1 mph82%30.07 "Hg3 mi
12:30 AM59 °FFog.No wind82%30.07 "Hg3 mi
12:00 AM59 °FFog.No wind82%30.07 "Hg3 mi
11:30 PM
Sep 22
59 °FFog.1 mph82%30.07 "Hg3 mi
11:00 PM61 °FClear.1 mph77%30.07 "Hg4 mi
10:30 PM63 °FClear.1 mph68%30.07 "Hg4 mi
10:00 PM64 °FPassing clouds.3 mph64%30.09 "Hg4 mi
9:30 PM64 °FPassing clouds.3 mph64%30.09 "Hg4 mi
9:00 PM64 °FPassing clouds.3 mph64%30.09 "Hg4 mi
8:30 PM66 °FPassing clouds.3 mph60%30.07 "Hg4 mi
8:00 PM66 °FPassing clouds.6 mph60%30.07 "Hg4 mi
7:30 PM66 °FPassing clouds.3 mph60%30.07 "Hg4 mi
7:00 PM68 °FPassing clouds.6 mph56%30.04 "HgN/A
6:30 PM66 °FPassing clouds.3 mph60%30.04 "HgN/A
6:00 PM68 °FPassing clouds.1 mph56%30.04 "HgN/A
5:30 PM70 °FScattered clouds.1 mph53%30.04 "HgN/A
5:00 PM73 °FScattered clouds.1 mph47%30.04 "HgN/A
4:30 PM75 °FSunny.3 mph41%30.04 "Hg10 mi
4:00 PM77 °FSunny.6 mph36%30.04 "Hg10 mi
3:30 PM77 °FPassing clouds.6 mph34%30.04 "HgN/A
3:00 PM79 °FPassing clouds.8 mph34%30.04 "HgN/A
2:30 PM79 °FSunny.6 mph34%30.04 "Hg10 mi
2:00 PM79 °FPassing clouds.8 mph32%30.04 "HgN/A
1:30 PM79 °FPassing clouds.6 mph32%30.07 "HgN/A
1:00 PM79 °FSunny.3 mph34%30.07 "Hg10 mi
12:30 PM77 °FPassing clouds.6 mph36%30.07 "HgN/A
12:00 PM79 °FSunny.3 mph32%30.07 "Hg10 mi
11:30 AM77 °FPassing clouds.6 mph34%30.09 "HgN/A
11:00 AM75 °FPassing clouds.3 mph39%30.09 "HgN/A
10:30 AM75 °FPassing clouds.3 mph39%30.09 "HgN/A
10:00 AM73 °FPassing clouds.3 mph44%30.12 "HgN/A
Weather by CustomWeather, © 2014

See weather overviewHow to use our weather pages